Williamsburg, VA

11:16 AM EDT on August 18, 2017 (GMT -0400)
Williamsburg-jamestown

Weather History for KJGG - March, 2014

Change the Weather History Date:

Saturday, March 15, 2014

  Actual Average Record
Temperature  
Mean Temperature 60 °F -  
Max Temperature 73 °F 61 °F 86 °F (2012)
Min Temperature 48 °F 35 °F 15 °F (1993)
Degree Days  
Heating Degree Days 4    
Growing Degree Days 10 (Base 50)    
Moisture  
Dew Point 37 °F    
Average Humidity 43    
Maximum Humidity 71    
Minimum Humidity 25    
Precipitation  
Precipitation 0.00 in - - ()
Sea Level Pressure  
Sea Level Pressure 29.96 in    
Wind  
Wind Speed 11 mph (West)    
Max Wind Speed 20 mph    
Max Gust Speed 29 mph    
Visibility 10 miles    
Events      
Averages and records for this station are not official NWS values.
T = Trace of Precipitation, MM = Missing Value Source: NWS Daily Summary

Daily Weather History Graph

Daily Weather History Graph

Search for Another Location

Airport or City:

Trip Planner

Search our weather history database for the weather conditions in past years. The results will help you decide how hot, cold, wet, or windy it might be!

Date:

Astronomy

Mar. 15, 2014 Rise Set
Actual Time 7:17 AM EDT 7:14 PM EDT
Civil Twilight 6:51 AM EDT 7:40 PM EDT
Nautical Twilight 6:21 AM EDT 8:10 PM EDT
Astronomical Twilight 5:51 AM EDT 8:40 PM EDT
Moon 6:31 PM EDT (3/15) 6:27 AM EDT (3/15)
Length of Visible Light 12h 48m
Length of Day
11h 56m
Waxing Gibbous, 99% of the Moon is Illuminated
Mar 15
Waxing Gibbous
Mar 16
Full
Mar 23
Last Quarter
Mar 30
New
Apr 7
First Quarter

Hourly Weather History & Observations

Time (EDT) Temp. Dew Point Humidity Pressure Visibility Wind Dir Wind Speed Gust Speed Precip Events Conditions
12:15 AM 53.6 °F 28.4 °F 38% 30.05 in 10.0 mi SW 10.4 mph 18.4 mph N/A   Clear
12:35 AM 53.6 °F 28.4 °F 38% 30.04 in 10.0 mi SW 10.4 mph 19.6 mph N/A   Clear
12:55 AM 53.6 °F 30.2 °F 41% 30.04 in 10.0 mi SSW 10.4 mph 25.3 mph N/A   Unknown
1:15 AM 53.6 °F 30.2 °F 41% 30.03 in 10.0 mi SW 12.7 mph 23.0 mph N/A   Clear
1:35 AM 53.6 °F 33.8 °F 47% 30.02 in 10.0 mi SW 10.4 mph 25.3 mph N/A   Clear
1:55 AM 53.6 °F 33.8 °F 47% 30.02 in 10.0 mi SW 12.7 mph 20.7 mph N/A   Clear
2:15 AM 53.6 °F 35.6 °F 51% 30.01 in 10.0 mi SW 11.5 mph 21.9 mph N/A   Clear
2:35 AM 53.6 °F 35.6 °F 51% 30.00 in 10.0 mi SW 11.5 mph 19.6 mph N/A   Clear
2:55 AM 53.6 °F 35.6 °F 51% 29.99 in 10.0 mi WSW 10.4 mph 18.4 mph N/A   Clear
3:15 AM 53.6 °F 37.4 °F 54% 29.98 in 10.0 mi WSW 6.9 mph 18.4 mph N/A   Clear
3:35 AM 53.6 °F 37.4 °F 54% 29.97 in 10.0 mi SW 12.7 mph 16.1 mph N/A   Clear
3:55 AM 53.6 °F 37.4 °F 54% 29.97 in 10.0 mi WSW 8.1 mph - N/A   Unknown
4:15 AM 53.6 °F 37.4 °F 54% 29.96 in 10.0 mi SW 4.6 mph - N/A   Unknown
4:35 AM 53.6 °F 37.4 °F 54% 29.95 in 10.0 mi WSW 6.9 mph - N/A   Mostly Cloudy
4:55 AM 55.4 °F 37.4 °F 51% 29.95 in 10.0 mi WSW 10.4 mph - N/A   Scattered Clouds
5:15 AM 55.4 °F 39.2 °F 54% 29.95 in 10.0 mi SW 10.4 mph - N/A   Unknown
5:35 AM 55.4 °F 39.2 °F 54% 29.95 in 10.0 mi WSW 10.4 mph 17.3 mph N/A   Mostly Cloudy
5:55 AM 55.4 °F 39.2 °F 54% 29.95 in 10.0 mi WSW 8.1 mph - N/A   Scattered Clouds
6:15 AM 55.4 °F 37.4 °F 51% 29.94 in 10.0 mi WSW 10.4 mph 18.4 mph N/A   Unknown
6:35 AM 55.4 °F 39.2 °F 54% 29.94 in 10.0 mi WSW 10.4 mph - N/A   Mostly Cloudy
6:55 AM 53.6 °F 39.2 °F 58% 29.95 in 10.0 mi WSW 10.4 mph - N/A   Unknown
7:15 AM 53.6 °F 39.2 °F 58% 29.95 in 10.0 mi WSW 8.1 mph 17.3 mph N/A   Unknown
7:35 AM 53.6 °F 39.2 °F 58% 29.95 in 10.0 mi WSW 5.8 mph - N/A   Unknown
7:55 AM 53.6 °F 39.2 °F 58% 29.96 in 10.0 mi WSW 9.2 mph - N/A   Unknown
8:15 AM 53.6 °F 39.2 °F 58% 29.96 in 10.0 mi WSW 12.7 mph 21.9 mph N/A   Clear
8:35 AM 55.4 °F 39.2 °F 54% 29.96 in 10.0 mi WSW 10.4 mph 23.0 mph N/A   Clear
8:55 AM 55.4 °F 39.2 °F 54% 29.96 in 10.0 mi WSW 12.7 mph 23.0 mph N/A   Clear
9:15 AM 57.2 °F 39.2 °F 51% 29.96 in 10.0 mi West 12.7 mph 21.9 mph N/A   Clear
9:35 AM 59.0 °F 37.4 °F 45% 29.96 in 10.0 mi West 13.8 mph 20.7 mph N/A   Clear
9:55 AM 60.8 °F 37.4 °F 42% 29.96 in 10.0 mi West 10.4 mph 20.7 mph N/A   Clear
10:15 AM 60.8 °F 39.2 °F 45% 29.96 in 10.0 mi West 15.0 mph 18.4 mph N/A   Clear
10:35 AM 62.6 °F 39.2 °F 42% 29.96 in 10.0 mi West 12.7 mph - N/A   Clear
10:55 AM 64.4 °F 37.4 °F 37% 29.96 in 10.0 mi West 12.7 mph - N/A   Clear
11:15 AM 66.2 °F 37.4 °F 35% 29.95 in 10.0 mi West 17.3 mph 21.9 mph N/A   Clear
11:35 AM 68.0 °F 37.4 °F 33% 29.95 in 10.0 mi West 17.3 mph 25.3 mph N/A   Clear
11:55 AM 69.8 °F 37.4 °F 31% 29.95 in 10.0 mi West 17.3 mph 24.2 mph N/A   Clear
12:15 PM 69.8 °F 37.4 °F 31% 29.94 in 10.0 mi West 13.8 mph 25.3 mph N/A   Clear
12:35 PM 69.8 °F 37.4 °F 31% 29.94 in 10.0 mi West 16.1 mph 26.5 mph N/A   Clear
12:55 PM 71.6 °F 37.4 °F 29% 29.94 in 10.0 mi West 13.8 mph 21.9 mph N/A   Clear
1:15 PM 71.6 °F 37.4 °F 29% 29.93 in 10.0 mi West 17.3 mph 28.8 mph N/A   Clear
1:35 PM 71.6 °F 37.4 °F 29% 29.93 in 10.0 mi West 16.1 mph 26.5 mph N/A   Clear
2:15 PM 73.4 °F 37.4 °F 27% 29.92 in 10.0 mi West 13.8 mph 26.5 mph N/A   Clear
2:35 PM 71.6 °F 37.4 °F 29% 29.91 in 10.0 mi West 13.8 mph 25.3 mph N/A   Clear
2:55 PM 73.4 °F 37.4 °F 27% 29.90 in 10.0 mi West 16.1 mph 24.2 mph N/A   Clear
3:15 PM 73.4 °F 35.6 °F 25% 29.89 in 10.0 mi WNW 15.0 mph 26.5 mph N/A   Clear
3:35 PM 73.4 °F 37.4 °F 27% 29.89 in 10.0 mi West 13.8 mph 25.3 mph N/A   Clear
3:55 PM 73.4 °F 37.4 °F 27% 29.89 in 10.0 mi WNW 15.0 mph 25.3 mph N/A   Clear
4:15 PM 73.4 °F 35.6 °F 25% 29.89 in 10.0 mi West 19.6 mph 26.5 mph N/A   Clear
4:35 PM 73.4 °F 37.4 °F 27% 29.89 in 10.0 mi West 12.7 mph 21.9 mph N/A   Clear
4:55 PM 73.4 °F 37.4 °F 27% 29.89 in 10.0 mi West 15.0 mph 23.0 mph N/A   Clear
5:15 PM 73.4 °F 37.4 °F 27% 29.89 in 10.0 mi West 13.8 mph 23.0 mph N/A   Clear
5:35 PM 73.4 °F 37.4 °F 27% 29.89 in 10.0 mi West 13.8 mph 23.0 mph N/A   Clear
5:55 PM 71.6 °F 37.4 °F 29% 29.90 in 10.0 mi West 9.2 mph - N/A   Clear
6:15 PM 71.6 °F 35.6 °F 27% 29.90 in 10.0 mi West 8.1 mph - N/A   Clear
6:35 PM 71.6 °F 35.6 °F 27% 29.91 in 10.0 mi WNW 10.4 mph 16.1 mph N/A   Clear
6:55 PM 69.8 °F 35.6 °F 28% 29.92 in 10.0 mi WNW 8.1 mph - N/A   Clear
7:15 PM 68.0 °F 33.8 °F 28% 29.93 in 10.0 mi WNW 8.1 mph - N/A   Clear
7:35 PM 64.4 °F 35.6 °F 34% 29.94 in 10.0 mi West 6.9 mph - N/A   Clear
7:55 PM 66.2 °F 33.8 °F 30% 29.95 in 10.0 mi WNW 8.1 mph - N/A   Clear
8:15 PM 62.6 °F 33.8 °F 34% 29.95 in 10.0 mi West 4.6 mph - N/A   Clear
8:35 PM 60.8 °F 33.8 °F 36% 29.96 in 10.0 mi Calm Calm - N/A   Clear
8:55 PM 57.2 °F 35.6 °F 44% 29.98 in 10.0 mi Calm Calm - N/A   Clear
9:15 PM 55.4 °F 35.6 °F 47% 29.98 in 10.0 mi WNW 3.5 mph - N/A   Clear
9:35 PM 55.4 °F 39.2 °F 54% 29.99 in 10.0 mi WNW 3.5 mph - N/A   Clear
9:55 PM 53.6 °F 41.0 °F 62% 30.01 in 10.0 mi Calm Calm - N/A   Clear
10:15 PM 51.8 °F 39.2 °F 62% 30.01 in 10.0 mi NW 4.6 mph - N/A   Clear
10:35 PM 51.8 °F 39.2 °F 62% 30.02 in 10.0 mi NW 3.5 mph - N/A   Clear
10:55 PM 50.0 °F 39.2 °F 66% 30.03 in 10.0 mi NNW 4.6 mph - N/A   Clear
11:15 PM 48.2 °F 37.4 °F 66% 30.03 in 10.0 mi North 5.8 mph - N/A   Clear
11:35 PM 48.2 °F 39.2 °F 71% 30.04 in 10.0 mi NNE 4.6 mph - N/A   Clear
11:55 PM 50.0 °F 39.2 °F 66% 30.04 in 10.0 mi NE 4.6 mph - N/A   Clear